7 * 24
多渠道服务支持
MOLNIYA 3-47 是一颗俄罗斯军用通信卫星,于1998年发射,运行在高椭圆轨道上,主要用于军事通信和战略指挥系统。该卫星属于“闪电”(Molniya)系列,设计寿命较长,能够在高纬度地区提供稳定的通信覆盖。由于其轨道特性,MOLNIYA 3-47 在北半球高纬度区域具有较长的可见时间,适合俄罗斯等高纬度国家使用。该卫星已退役,但仍处于轨道上,属于在轨空间碎片之一。
| 数据来源 | 国际轨道数据 |
| 星历时间: | 2025-10-11T06:47:20+0800 轨道信息已过期18天 |
| 半长轴: | 26438.641km |
| 偏心率: | 0.6812126 |
| 轨道倾角: | 64.977° |
| 近地点辐角 | 272.441° |
| 升交点赤经 | 294.456° |
| 平近点角 | 17.492° |
| 近地点: | 2050.17km |
| 远地点: | 38070.842km |
| 周期: | 713.047分钟 |
| 每日圈数: | 2.019501 |